Location: Ar Ranvel
(48.3000°N, 4.8833°W)
Time: 15:21:28
(UTC+00:00)

COSMOS 2428 - Pass Details

Date: 16 June 2021
Orbit: 845 x 857 km, 70.9° (Epoch: 05 August)

Event Time Altitude Azimuth Distance (km) Brightness Sun altitude
Exits shadow 23:43:01 11° 226° (SW) 2,397 4.7 -17.8°
Maximum altitude 23:48:23 56° 303° (WNW) 1,019 3.3 -18.0°
Drops below altitude 10° 23:54:02 10° 22° (NNE) 2,503 6.1 -18.1°
Sets 23:56:34 0° 27° (NNE) 3,443 6.9 -18.1°
